Flag for Germany Weather past 2 weeks in Schwäbisch Hall, Baden-Württemberg, Germany

Now
45 °F

Overcast.


Feels Like: 45 °F
Forecast: 39 / 59 °F
Wind: 2 mph from East

Location: Oehringen

Current Time: Oct 25, 2014 at 2:41:45 AM

Latest Report: Oct 25, 2014 at 2:00 AM


Visibility: 6 mi

Pressure: 30.14 "Hg

Humidity: 89%

Dew point: 42 °F

Location of Schwäbisch HallLocation

Historic Weather in Schwäbisch Hall — Graph

°F

Schwäbisch Hall temperature yesterday

Maximum temperature yesterday: 58 °F (at 4:00 PM)
Minimum temperature yesterday: 37 °F (at 8:00 AM)
Average temperature yesterday: 46 °F

Past Weeks' High & Low Weather Summary

 TemperatureHumidityPressure
High73 °F (Oct 19, 2:00 PM)99% (Oct 11, 8:00 AM)30.29 "Hg (Oct 11, 8:00 AM)
Low37 °F (Oct 24, 8:00 AM)54% (Oct 14, 2:00 PM)29.62 "Hg (Oct 21, 7:00 PM)
Average56 °F86%29.98 "Hg
* Reported Oct 10 1:00 AM — Oct 25 1:00 AM, Schwäbisch Hall, Weather by CustomWeather, © 2014

Note: Actual official high and low records may vary slightly from our data, if they occured in-between our weather recording intervals... More about our weather records

Advertising

Schwäbisch Hall weather history for previous 24 hours

 ConditionsComfort  
Time TempWeatherWind HumidityBarometerVisibility
1:00 AM
Oct 25
45 °FOvercast.2 mph89%30.15 "Hg7 mi
12:00 AM46 °FOvercast.1 mph87%30.15 "Hg7 mi
11:00 PM
Oct 24
48 °FOvercast.2 mph81%30.16 "Hg8 mi
10:00 PM47 °FOvercast.2 mph82%30.16 "Hg9 mi
9:00 PM48 °FOvercast.2 mph81%30.16 "Hg11 mi
8:00 PM48 °FOvercast.2 mph82%30.15 "Hg9 mi
7:00 PM50 °FPassing clouds.2 mph76%30.14 "Hg11 mi
6:00 PM53 °FSunny.5 mph66%30.14 "Hg16 mi
5:00 PM57 °FSunny.3 mph58%30.13 "Hg19 mi
4:00 PM58 °FPassing clouds.2 mph59%30.14 "Hg19 mi
3:00 PM55 °FScattered clouds.2 mph71%30.16 "Hg11 mi
2:00 PM57 °FScattered clouds.2 mph62%30.18 "Hg19 mi
1:00 PM55 °FPartly sunny.5 mph63%30.21 "Hg25 mi
12:00 PM52 °FSunny.3 mph75%30.23 "Hg6 mi
11:00 AM48 °FSunny.1 mph82%30.25 "Hg7 mi
10:00 AM42 °FSunny.2 mph88%30.27 "Hg6 mi
9:00 AM38 °FSunny.1 mph98%30.27 "Hg5 mi
8:00 AM37 °FFog.2 mph98%30.27 "Hg4 mi
7:00 AM37 °FFog.2 mph97%30.27 "Hg4 mi
6:00 AM38 °FFog.2 mph97%30.26 "Hg3 mi
5:00 AM38 °FFog.1 mph97%30.27 "Hg3 mi
4:00 AM40 °FFog.2 mph97%30.28 "Hg2 mi
3:00 AM40 °FFog.1 mph97%30.29 "Hg3 mi
2:00 AM41 °FFog.1 mph97%30.29 "Hg2 mi
Weather by CustomWeather, © 2014

See weather overviewHow to use our weather pages